This demonstration page uses our WeatherBlox Daily Observations layout. Learn more.

39.92423, -83.80882

Hourly Observations for December 11, 2017

Temp ( °F °C ) Dew Point ( °F °C ) Humidity (%) Winds ( mph kmh ) Pressure ( in mb ) Visibility ( mi km ) Precip ( " mm )
12:28 am 00:28 Cloudy 30 -1 25 -4 80 80 W 12 19 30.09 1019 10 16.0934 0 0
12:56 am 00:56 Cloudy 31 -0.6 24 -4.4 76 76 NW 10 17 30.07 1018 10 16.0934 0 0
1:56 am 01:56 Cloudy 30 -1.1 24 -4.4 79 79 NNW 13 20 30.09 1019 10 16.0934 0 0
2:56 am 02:56 Cloudy 29 -1.7 23 -5 78 78 NW 8 13 30.09 1019 10 16.0934 0 0
3:56 am 03:56 Cloudy 29 -1.7 23 -5 78 78 NW 5 7 30.09 1019 10 16.0934 0 0
4:56 am 04:56 Cloudy 28 -2.2 22 -5.6 78 78 Calm 30.1 1019 10 16.0934 0 0
5:56 am 05:56 Cloudy 28 -2.2 21 -6.1 75 75 Calm 30.1 1019 10 16.0934 0 0
6:56 am 06:56 Cloudy 27 -2.8 21 -6.1 78 78 SW 6 9 30.11 1020 10 16.0934 0 0
7:56 am 07:56 Mostly Cloudy 26 -3.3 21 -6.1 81 81 S 3 6 30.1 1019 10 16.0934 0 0
8:10 am 08:10 Mostly Sunny 27 -3 21 -6 80 80 S 3 6 30.12 1020 10 16.0934 0 0
8:56 am 08:56 Mostly Cloudy 29 -1.7 23 -5 78 78 S 3 6 30.09 1019 10 16.0934 0 0
9:56 am 09:56 Mostly Cloudy 32 0 24 -4.4 73 73 S 6 9 30.06 1018 10 16.0934 0 0
10:56 am 10:56 Cloudy 32 0 24 -4.4 73 73 S 10 17 30.03 1017 10 16.0934 0 0
11:56 am 11:56 Mostly Cloudy 35 1.7 25 -3.9 67 67 SSW 8 13 30 1016 10 16.0934 0 0
12:56 pm 12:56 Cloudy 34 1.1 25 -3.9 70 70 SSW 10 17 29.94 1014 10 16.0934 0 0
1:56 pm 13:56 Cloudy 36 2.2 26 -3.3 67 67 SSW 8 13 29.89 1012 10 16.0934 0 0
2:56 pm 14:56 Partly Cloudy 37 2.8 27 -2.8 67 67 S 7 11 29.87 1012 10 16.0934 0 0
3:56 pm 15:56 Sunny 38 3.3 28 -2.2 68 68 SSE 5 7 29.84 1010 10 16.0934 0 0
4:56 pm 16:56 Sunny 36 2.2 28 -2.2 73 73 SE 7 11 29.8 1009 10 16.0934 0 0
5:56 pm 17:56 Clear 34 1.1 28 -2.2 79 79 ESE 9 15 29.78 1008 10 16.0934 0 0
6:56 pm 18:56 Clear 35 1.7 28 -2.2 76 76 ESE 13 20 29.75 1007 10 16.0934 0 0
7:56 pm 19:56 Clear 34 1.1 27 -2.8 76 76 ESE 10 17 29.73 1007 10 16.0934 0 0
8:56 pm 20:56 Clear 34 1.1 27 -2.8 76 76 SE 9 15 29.69 1005 10 16.0934 0 0
9:56 pm 21:56 Cloudy 36 2.2 28 -2.2 73 73 SW 5 7 29.68 1005 10 16.0934 0 0
10:56 pm 22:56 Cloudy 39 3.9 29 -1.7 67 67 W 17 28 29.67 1005 10 16.0934 0 0
11:56 pm 23:56 Partly Cloudy 37 2.8 27 -2.8 67 67 WSW 14 22 29.67 1005 10 16.0934 0 0

Powered by AerisWeather